Weather History for Bentonville, AR

Change the Weather History Date:

Friday, May 31, 2013

  Actual Average Record
Temperature  
Mean Temperature 73 °F -  
Max Temperature 84 °F 79 °F 93 °F (1953)
Min Temperature 62 °F 58 °F 41 °F (1983)
Cooling Degree Days 8    
Growing Degree Days 23 (Base 50)    
Moisture  
Dew Point 67 °F    
Average Humidity 76    
Maximum Humidity 88    
Minimum Humidity 62    
Precipitation  
Precipitation 0.00 in - - ()
Sea Level Pressure  
Sea Level Pressure 29.78 in    
Wind  
Wind Speed 10 mph (South)    
Max Wind Speed 17 mph    
Max Gust Speed 32 mph    
Visibility 10 miles    
Events      
Averages and records for this station are not official NWS values.
T = Trace of Precipitation, MM = Missing Value Source: NWS Daily Summary

Daily Weather History Graph

Daily Weather History Graph

Search for Another Location

Airport:

Trip Planner

Search our weather history database for the weather conditions in past years. The results will help you decide how hot, cold, wet, or windy it might be!

Date:

Astronomy

May. 31, 2013 Rise Set
Actual Time 6:00 AM CDT 8:28 PM CDT
Civil Twilight 5:31 AM CDT 8:58 PM CDT
Nautical Twilight 4:54 AM CDT 9:35 PM CDT
Astronomical Twilight 4:13 AM CDT 10:16 PM CDT
Moon 1:11 AM CDT (5/31) 1:07 PM CDT (5/31)
Length of Visible Light 15h 27m
Length of Day
14h 27m
Waning Gibbous, 51% of the Moon is Illuminated
May 31
Waning Gibbous
May 31
Last Quarter
Jun 8
New
Jun 16
First Quarter
Jun 23
Full

Hourly Weather History & Observations

Time (CDT) Temp. Heat Index Dew Point Humidity Pressure Visibility Wind Dir Wind Speed Gust Speed Precip Events Conditions
12:15 AM 62.6 °F - 59.0 °F 88% 29.80 in 10.0 mi SE 4.6 mph - N/A   Clear
12:35 AM 62.6 °F - 57.2 °F 82% 29.78 in 10.0 mi SE 8.1 mph - N/A   Clear
12:55 AM 62.6 °F - 57.2 °F 82% 29.78 in 10.0 mi ESE 5.8 mph - N/A   Clear
1:15 AM 62.6 °F - 57.2 °F 82% 29.77 in 10.0 mi SE 9.2 mph - N/A   Clear
1:35 AM 62.6 °F - 59.0 °F 88% 29.77 in 10.0 mi SE 8.1 mph - N/A   Clear
1:55 AM 62.6 °F - 59.0 °F 88% 29.77 in 10.0 mi SSE 6.9 mph - N/A   Clear
2:15 AM 64.4 °F - 60.8 °F 88% 29.77 in 10.0 mi SSE 9.2 mph - N/A   Clear
2:35 AM 66.2 °F - 62.6 °F 88% 29.77 in 10.0 mi SSE 11.5 mph 17.3 mph N/A   Clear
2:55 AM 68.0 °F - 64.4 °F 88% 29.77 in 10.0 mi SSE 11.5 mph 17.3 mph N/A   Clear
3:15 AM 68.0 °F - 64.4 °F 88% 29.77 in 10.0 mi SSE 11.5 mph 17.3 mph N/A   Clear
3:35 AM 69.8 °F - 66.2 °F 88% 29.76 in 10.0 mi South 11.5 mph - N/A   Partly Cloudy
3:55 AM 69.8 °F - 66.2 °F 88% 29.76 in 10.0 mi South 10.4 mph - N/A   Clear
4:15 AM 69.8 °F - 66.2 °F 88% 29.76 in 10.0 mi South 11.5 mph 19.6 mph N/A   Clear
4:35 AM 69.8 °F - 64.4 °F 83% 29.76 in 10.0 mi South 13.8 mph 18.4 mph N/A   Partly Cloudy
4:55 AM 69.8 °F - 64.4 °F 83% 29.77 in 10.0 mi South 11.5 mph 18.4 mph N/A   Clear
5:15 AM 69.8 °F - 64.4 °F 83% 29.76 in 10.0 mi South 11.5 mph - N/A   Partly Cloudy
5:35 AM 69.8 °F - 64.4 °F 83% 29.77 in 10.0 mi South 11.5 mph 16.1 mph N/A   Scattered Clouds
5:55 AM 69.8 °F - 64.4 °F 83% 29.77 in 10.0 mi South 9.2 mph 17.3 mph N/A   Partly Cloudy
5:56 AM 69.8 °F - 64.4 °F 83% 29.77 in 10.0 mi South 11.5 mph 17.3 mph N/A   Partly Cloudy
6:15 AM 69.8 °F - 64.4 °F 83% 29.78 in 10.0 mi South 11.5 mph 17.3 mph N/A   Clear
6:35 AM 69.8 °F - 64.4 °F 83% 29.79 in 10.0 mi South 11.5 mph 17.3 mph N/A   Partly Cloudy
6:56 AM 71.6 °F - 64.4 °F 78% 29.79 in 10.0 mi South 12.7 mph 18.4 mph N/A   Partly Cloudy
7:15 AM 71.6 °F - 64.4 °F 78% 29.78 in 10.0 mi South 15.0 mph 24.2 mph N/A   Partly Cloudy
7:35 AM 73.4 °F - 66.2 °F 78% 29.77 in 10.0 mi South 16.1 mph 26.5 mph N/A   Clear
7:56 AM 73.4 °F - 66.2 °F 78% 29.80 in 10.0 mi SSW 12.7 mph 25.3 mph N/A   Scattered Clouds
8:15 AM 73.4 °F - 66.2 °F 78% 29.79 in 10.0 mi SSW 13.8 mph 18.4 mph N/A   Overcast
8:35 AM 73.4 °F - 66.2 °F 78% 29.79 in 10.0 mi SSW 13.8 mph 20.7 mph N/A   Overcast
8:55 AM 75.2 °F - 66.2 °F 73% 29.80 in 10.0 mi SSW 12.7 mph 27.6 mph N/A   Overcast
9:15 AM 75.2 °F - 68.0 °F 78% 29.80 in 10.0 mi SSW 16.1 mph 26.5 mph N/A   Mostly Cloudy
9:35 AM 77.0 °F - 68.0 °F 74% 29.80 in 10.0 mi South 17.3 mph 27.6 mph N/A   Mostly Cloudy
9:55 AM 78.8 °F - 69.8 °F 74% 29.80 in 10.0 mi SSW 16.1 mph 26.5 mph N/A   Overcast
10:15 AM 78.8 °F - 68.0 °F 69% 29.80 in 10.0 mi SSW 17.3 mph 32.2 mph N/A   Overcast
10:55 AM 77.0 °F - 68.0 °F 74% 29.82 in 10.0 mi SSW 13.8 mph 23.0 mph N/A   Overcast
11:16 AM 77.0 °F - 68.0 °F 74% 29.83 in 10.0 mi SSW 12.7 mph 18.4 mph N/A   Overcast
11:35 AM 77.0 °F - 68.0 °F 74% 29.82 in 10.0 mi South 11.5 mph 20.7 mph N/A   Overcast
11:55 AM 78.8 °F - 69.8 °F 74% 29.82 in 10.0 mi SSW 12.7 mph 19.6 mph N/A   Overcast
12:35 PM 78.8 °F - 69.8 °F 74% 29.82 in 10.0 mi SSW 8.1 mph 17.3 mph N/A   Mostly Cloudy
12:55 PM 78.8 °F - 69.8 °F 74% 29.82 in 10.0 mi SSW 12.7 mph 16.1 mph N/A   Overcast
1:15 PM 78.8 °F - 69.8 °F 74% 29.82 in 10.0 mi SSW 8.1 mph 18.4 mph N/A   Overcast
1:35 PM 80.6 °F 83.9 °F 69.8 °F 70% 29.82 in 10.0 mi SSW 9.2 mph - N/A   Mostly Cloudy
1:55 PM 80.6 °F 83.9 °F 69.8 °F 70% 29.81 in 10.0 mi SSW 9.2 mph - N/A   Overcast
2:15 PM 80.6 °F 83.9 °F 69.8 °F 70% 29.81 in 10.0 mi SSW 10.4 mph - N/A   Overcast
2:35 PM 80.6 °F 83.9 °F 69.8 °F 70% 29.80 in 10.0 mi SSW 11.5 mph 16.1 mph N/A   Mostly Cloudy
2:55 PM 82.4 °F 87.2 °F 71.6 °F 70% 29.80 in 10.0 mi SSW 11.5 mph 17.3 mph N/A   Mostly Cloudy
3:15 PM 82.4 °F 86.3 °F 69.8 °F 66% 29.79 in 10.0 mi SSW 11.5 mph 17.3 mph N/A   Scattered Clouds
3:55 PM 84.2 °F 88.4 °F 69.8 °F 62% 29.78 in 10.0 mi South 15.0 mph 23.0 mph N/A   Scattered Clouds
4:15 PM 84.2 °F 88.4 °F 69.8 °F 62% 29.77 in 10.0 mi South 15.0 mph 20.7 mph N/A   Scattered Clouds
4:36 PM 84.2 °F 88.4 °F 69.8 °F 62% 29.76 in 10.0 mi SSW 13.8 mph 20.7 mph N/A   Mostly Cloudy
4:55 PM 84.2 °F 88.4 °F 69.8 °F 62% 29.75 in 10.0 mi South 13.8 mph 19.6 mph N/A   Mostly Cloudy
5:15 PM 84.2 °F 88.4 °F 69.8 °F 62% 29.76 in 10.0 mi South 15.0 mph 21.9 mph N/A   Mostly Cloudy
5:35 PM 84.2 °F 88.4 °F 69.8 °F 62% 29.76 in 10.0 mi South 16.1 mph 21.9 mph N/A   Overcast
5:55 PM 84.2 °F 88.4 °F 69.8 °F 62% 29.73 in 10.0 mi South 17.3 mph 24.2 mph N/A   Mostly Cloudy
6:35 PM 82.4 °F 86.3 °F 69.8 °F 66% 29.67 in 10.0 mi South 15.0 mph 21.9 mph N/A   Mostly Cloudy
6:55 PM 82.4 °F 86.3 °F 69.8 °F 66% 29.71 in 10.0 mi South 11.5 mph 17.3 mph N/A   Mostly Cloudy
7:35 PM 80.6 °F 83.9 °F 69.8 °F 70% 29.74 in 10.0 mi South 6.9 mph - N/A   Overcast
7:55 PM 80.6 °F 83.9 °F 69.8 °F 70% 29.76 in 10.0 mi South 4.6 mph - N/A   Overcast
8:15 PM 78.8 °F - 69.8 °F 74% 29.75 in 10.0 mi South 5.8 mph - N/A   Mostly Cloudy
8:35 PM 78.8 °F - 69.8 °F 74% 29.76 in 10.0 mi SSW 6.9 mph - N/A   Clear
8:55 PM 78.8 °F - 69.8 °F 74% 29.77 in 10.0 mi SSW 5.8 mph - N/A   Clear
9:15 PM 78.8 °F - 69.8 °F 74% 29.81 in 9.0 mi West 6.9 mph - N/A   Mostly Cloudy
9:35 PM 78.8 °F - 69.8 °F 74% 29.81 in 10.0 mi West 5.8 mph - N/A   Mostly Cloudy
9:55 PM 77.0 °F - 69.8 °F 78% 29.80 in 10.0 mi SSW 4.6 mph - N/A   Clear
10:15 PM 75.2 °F - 69.8 °F 83% 29.78 in 10.0 mi South 6.9 mph - N/A   Clear
10:35 PM 77.0 °F - 69.8 °F 78% 29.78 in 10.0 mi South 5.8 mph - N/A   Clear
10:55 PM 75.2 °F - 69.8 °F 83% 29.78 in 10.0 mi South 5.8 mph - N/A   Clear
11:15 PM 77.0 °F - 69.8 °F 78% 29.78 in 10.0 mi South 5.8 mph - N/A   Clear
11:35 PM 77.0 °F - 69.8 °F 78% 29.77 in 10.0 mi SSE 6.9 mph - N/A   Clear
11:55 PM 77.0 °F - 69.8 °F 78% 29.76 in 10.0 mi South 9.2 mph - N/A   Clear